Flag for U.S.A. Weather past 2 weeks in Yonkers, New York, U.S.A.

Now
59 °F

Scattered clouds.


Feels Like: 57 °F
Forecast: 52 / 64 °F
Wind: 10 mph from Northeast

Location: Teterboro Airport

Current Time: Sep 19, 2014 at 10:52:50 AM

Latest Report: Sep 19, 2014 at 9:51 AM


Visibility: 10 mi

Pressure: 30.33 "Hg

Humidity: 44%

Dew point: 37 °F

Location of YonkersLocation

Historic Weather in Yonkers — Graph

°F

Yonkers temperature yesterday

Maximum temperature yesterday: 76 °F (at 4:51 PM)
Minimum temperature yesterday: 52 °F (at 6:51 AM)
Average temperature yesterday: 65 °F

Past Weeks' High & Low Weather Summary

 TemperatureHumidityPressure
High94 °F (Sep 6, 2:51 PM)94% (Sep 13, 6:58 PM)30.31 "Hg (Sep 13, 6:58 PM)
Low50 °F (Sep 15, 4:51 AM)26% (Sep 18, 4:51 PM)29.80 "Hg (Sep 11, 3:51 PM)
Average69 °F62%30.08 "Hg
* Reported Sep 4 8:51 AM — Sep 19 8:51 AM, Yonkers, Weather by CustomWeather, © 2014

Note: Actual official high and low records may vary slightly from our data, if they occured in-between our weather recording intervals... More about our weather records

Advertising

Yonkers weather history for previous 24 hours

 ConditionsComfort  
Time TempWeatherWind HumidityBarometerVisibility
8:51 AM
Sep 19
57 °FSunny.12 mph44%30.31 "Hg10 mi
8:02 AM55 °FScattered clouds.5 mph72%30.29 "Hg10 mi
7:51 AM56 °FPartly sunny.6 mph70%30.28 "Hg10 mi
6:51 AM54 °FOvercast.8 mph72%30.26 "Hg10 mi
5:51 AM55 °FPassing clouds.8 mph72%30.23 "Hg10 mi
4:51 AM56 °FClear.6 mph70%30.19 "Hg10 mi
3:51 AM57 °FClear.7 mph72%30.17 "Hg10 mi
2:51 AM58 °FClear.5 mph70%30.16 "Hg10 mi
1:51 AM60 °FClear.3 mph67%30.14 "Hg10 mi
12:51 AM61 °FClear.5 mph65%30.12 "Hg10 mi
11:51 PM
Sep 18
62 °FClear.5 mph62%30.10 "Hg10 mi
10:51 PM62 °FClear.3 mph58%30.08 "Hg10 mi
9:51 PM65 °FClear.3 mph47%30.05 "Hg10 mi
8:51 PM64 °FClear.No wind50%30.03 "Hg10 mi
7:51 PM70 °FSunny.No wind37%30.01 "Hg10 mi
6:51 PM72 °FSunny.7 mph33%29.99 "Hg10 mi
5:51 PM75 °FSunny.6 mph28%29.98 "Hg10 mi
4:51 PM76 °FScattered clouds.8 mph26%29.97 "Hg10 mi
3:51 PM74 °FScattered clouds.8 mph31%29.97 "Hg10 mi
2:51 PM75 °FPartly sunny.5 mph34%29.96 "Hg10 mi
1:51 PM74 °FPassing clouds.8 mph37%29.97 "Hg10 mi
12:51 PM73 °FPartly sunny.5 mph38%29.98 "Hg10 mi
11:51 AM73 °FSunny.3 mph38%29.99 "Hg10 mi
10:51 AM69 °FSunny.No wind44%30.00 "Hg10 mi
Weather by CustomWeather, © 2014

See weather overviewHow to use our weather pages